Regional Weather Roundup
Issued by NWS Sterling, VA

Home | Current Version | Previous Version | Text Only | Print | Product List | Glossary On
Versions: 1 2 3 4 5 6 7 8 9 10 11 12 13 14 15 16 17 18 19 20 21 22 23 24 25 26 27 28 29 30 31 32 33 34 35 36 37 38 39 40 41 42 43 44 45 46 47 48 49 50
000
ASUS41 KLWX 211411
RWRLWX

REGIONAL WEATHER ROUNDUP
NATIONAL WEATHER SERVICE BALTIMORE MD/WASHINGTON DC
1000 AM EDT FRI JUL 21 2017

Note: "FAIR" indicates few or no clouds below 12,000 feet
with no significant weather and/or obstructions to visibility.
 TC=TEMPERATURE CELSIUS

 * =Non NWS site. Station does not report precipitation (e.g. rain,
    snow, etc.), thunder, or fog.

DCZ001-MDZ009-015-VAZ040>042-051-053>054-211500-
WASHINGTON METRO

CITY           SKY/WX    TMP DP  RH WIND       PRES   REMARKS
WASHINGTON NAT MOSUNNY   89  72  56 NW9       29.97F HX  96
DULLES         PTSUNNY   86  71  60 NW12      29.98F HX  91
ANDREWS AFB    SUNNY     88  69  53 N7        29.97F HX  92
FT BELVOIR     SUNNY     89  71  55 NW7       29.97F HX  95
QUANTICO       MOSUNNY   89  72  56 NE9       29.97F HX  96
COLLEGE PARK*  SUNNY     87  70  56 N9        29.97S HX  92
LEESBURG*      SUNNY     88  73  62 W6        29.99F HX  96
MANASSAS*      SUNNY     88  72  58 NW6       29.98F HX  94
GAITHERSBURG*  SUNNY     86  73  65 CALM      30.00F HX  93

$$

MDZ006>007-011-014-211500-
BALTIMORE METRO

CITY           SKY/WX    TMP DP  RH WIND       PRES   REMARKS
BWI AIRPORT    MOSUNNY   88  71  57 NW8       29.96S HX  94
MD SCIENCE CTR   N/A     89  68  49 MISG      29.96S HX  93
MARTIN STATE   MOSUNNY   88  73  62 N3        29.97S HX  96
ANNAPOLIS      SUNNY     85  73  67 N6        29.96S HX  91
FORT MEADE*    SUNNY     86  70  58 NW3       29.99F HX  90

$$

MDZ012-015-019>023-211500-
MARYLAND EASTERN SHORE

CITY           SKY/WX    TMP DP  RH WIND       PRES   REMARKS
OCEAN CITY     CLOUDY    87  75  67 NW9       29.95R HX  96
SALISBURY      SUNNY     88  73  62 NW10      29.95S HX  96
BAY BRIDGE AP* SUNNY     86  73  66 N9        29.96F HX  93
CAMBRIDGE*     SUNNY     86  73  66 NW10      29.96S HX  93
EASTON*        MOSUNNY   88  72  58 N7        30.00S HX  94

$$

MDZ017>025-211500-
SOUTHERN MARYLAND

CITY           SKY/WX    TMP DP  RH WIND       PRES   REMARKS
PATUXENT RIVER CLOUDY    86  74  67 NW9       29.96S HX  94
ST INIGOES     CLOUDY    88  74  63 NW5       29.96R HX  96
LEONARDTOWN*   CLOUDY   N/A N/A N/A NW6       29.99S

$$

MDZ003>005-211500-
NORTH CENTRAL MARYLAND

CITY           SKY/WX    TMP DP  RH WIND       PRES   REMARKS
FREDERICK*     SUNNY     88  68  51 CALM      30.00F HX  91
HAGERSTOWN APT MOSUNNY   86  72  62 VRB6      29.99F HX  92
WESTMINSTER*   SUNNY     84  72  65 N3        30.00S

$$

MDZ501>502-211500-
WESTERN MARYLAND

CITY           SKY/WX    TMP DP  RH WIND       PRES   REMARKS
OAKLAND*       NOT AVBL
CUMBERLAND*    SUNNY     84  72  65 SE5       30.03F

$$

VAZ025>031-211500-
SHENANDOAH VALLEY

CITY           SKY/WX    TMP DP  RH WIND       PRES   REMARKS
WINCHESTER*    PTSUNNY   84  70  61 W7G17     30.00F
FRONT ROYAL*   SUNNY     86  70  58 S3        30.00F HX  90
LURAY*         SUNNY     82  70  65 S3        30.02S
NEW MARKET*    SUNNY     86  69  57 CALM      30.01F HX  90
STAUNTON*      CLOUDY    82  69  64 SW3       30.06F
WAYNESBORO*    SUNNY     83  70  64 SW6       30.07S

$$

WVZ021-048>050-054>055-211500-
EASTERN WEST VIRGINIA PANHANDLE

CITY           SKY/WX    TMP DP  RH WIND       PRES   REMARKS
MARTINSBURG    MOSUNNY   87  69  54 CALM      29.98F HX  91
PETERSBURG*    PTSUNNY   84  73  67 CALM      30.02S HX  90

$$

VAZ036>039-050-211500-
CENTRAL FOOTHILLS

CITY           SKY/WX    TMP DP  RH WIND       PRES   REMARKS
CHARLOTTESVILL SUNNY     88  69  53 SW5       30.00S HX  92
CULPEPER*      SUNNY     87  71  57 CALM      29.99F HX  93
ORANGE*        CLOUDY    86  70  58 CALM      29.99S HX  90
GORDONSVILLE*  CLOUDY    87  71  58 CALM      29.99F HX  92
WARRENTON*     SUNNY     89  67  47 CALM      29.99S HX  91

$$

VAZ055>057-211500-
NORTH AND CENTRAL PIEDMONT

CITY           SKY/WX    TMP DP  RH WIND       PRES   REMARKS
FREDERICKSBRG* SUNNY     87  72  61 CALM      29.97S HX  93
STAFFORD*      SUNNY     86  72  64 W3        30.02S HX  92

$$

NCZ024-NYZ072-PAZ021-071-VAZ022-071-211500-
OTHER REGIONAL OBSERVATIONS

CITY           SKY/WX    TMP DP  RH WIND       PRES   REMARKS
NEW YORK CITY  MOSUNNY   82  67  60 W6        29.95S
PHILADELPHIA   PTSUNNY   85  69  58 N7        29.95S
PITTSBURGH     CLOUDY    80  73  79 CALM      30.01F
ROANOKE        MOSUNNY   84  69  60 W7        30.08S
RICHMOND       CLOUDY    89  72  56 NE5       29.98R HX  96
RALEIGH        PTSUNNY   87  71  58 CALM      30.03R HX  93

$$

ANZ530>537-211500-
MARINE OBSERVATIONS

STATION/POSITION TIME  TEMP    WIND        PRES
                       AIR SEA DIR/SP/G
                 (UTC) (F)     (DEG/KT/KT) (MB)
THOMAS PT LIGHT  1400   83 83  360/  5/  6   N/A
BALT KEY BRIDGE  1348   87     340/  4/  5 1014.3S
COVE POINT       1348   83     350/ 12/ 13 1015.3R
LEWISETTA        1348   85 85  340/  8/ 11 1014.6R
SOLOMONS ISLAND  1348   85 84  350/  6/  8   N/A
PINEY POINT      1342          330/  8/  9   N/A

$$




USA.gov is the U.S. government's official web portal to all federal, state and local government web resources and services.